Flag for Switzerland Weather past 2 weeks in Reinach, Basel-Land, Switzerland

Now
40 °F

Passing clouds.


Feels Like: 40 °F
Forecast: 43 / 62 °F
Wind: 2 mph from Southwest

Location: Bale-Mulhouse

Current Time: Sep 24, 2014 at 7:27:27 AM

Latest Report: Sep 24, 2014 at 6:00 AM


Visibility: 4 mi

Pressure: 30.03 "Hg

Humidity: 98%

Dew point: 39 °F

Location of ReinachLocation

Historic Weather in Reinach — Graph

°F

Reinach temperature yesterday

Maximum temperature yesterday: 64 °F (at 5:00 PM)
Minimum temperature yesterday: 44 °F (at 2:00 AM)
Average temperature yesterday: 52 °F

Past Weeks' High & Low Weather Summary

 TemperatureHumidityPressure
High78 °F (Sep 16, 4:00 PM)99% (Sep 15, 4:00 AM)30.22 "Hg (Sep 15, 4:00 AM)
Low40 °F (Sep 24, 6:00 AM)48% (Sep 16, 4:00 PM)29.80 "Hg (Sep 17, 4:00 PM)
Average61 °F84%30.01 "Hg
* Reported Sep 9 6:00 AM — Sep 24 6:00 AM, Reinach, Weather by CustomWeather, © 2014

Note: Actual official high and low records may vary slightly from our data, if they occured in-between our weather recording intervals... More about our weather records

Advertising

Reinach weather history for previous 24 hours

 ConditionsComfort  
Time TempWeatherWind HumidityBarometerVisibility
6:00 AM
Sep 24
40 °FPassing clouds.2 mph98%30.03 "Hg4 mi
5:00 AM40 °FFog.1 mph97%30.03 "Hg2 mi
4:00 AM41 °FQuite cool.3 mph96%30.04 "Hg5 mi
3:00 AM41 °FQuite cool.2 mph96%30.05 "Hg1 mi
2:00 AM43 °FQuite cool.No wind95%30.07 "Hg1 mi
1:00 AM45 °FQuite cool.2 mph93%30.08 "Hg6 mi
12:00 AM46 °FPassing clouds.3 mph95%30.09 "Hg9 mi
11:00 PM
Sep 23
47 °FPassing clouds.5 mph93%30.08 "Hg9 mi
10:00 PM49 °FPassing clouds.6 mph92%30.07 "Hg12 mi
9:00 PM52 °FPassing clouds.8 mph88%30.06 "Hg16 mi
8:00 PM54 °FPassing clouds.7 mph80%30.04 "Hg16 mi
7:00 PM58 °FPassing clouds.7 mph68%30.02 "Hg16 mi
6:00 PM63 °FPassing clouds.8 mph58%30.01 "Hg16 mi
5:00 PM64 °FMild.8 mph59%30.01 "Hg14 mi
4:00 PM64 °FPassing clouds.9 mph62%30.03 "Hg19 mi
3:00 PM63 °FPassing clouds.9 mph60%30.05 "Hg19 mi
2:00 PM60 °FPassing clouds.7 mph66%30.09 "Hg22 mi
1:00 PM58 °FPassing clouds.7 mph63%30.11 "Hg16 mi
12:00 PM57 °FPassing clouds.2 mph60%30.13 "Hg19 mi
11:00 AM53 °FPassing clouds.7 mph70%30.17 "Hg16 mi
10:00 AM51 °FPassing clouds.5 mph79%30.20 "Hg9 mi
9:00 AM47 °FPassing clouds.2 mph89%30.22 "Hg5 mi
8:00 AM45 °FFog.No wind96%30.21 "Hg2 mi
7:00 AM45 °FFog.2 mph95%30.21 "Hg2 mi
Weather by CustomWeather, © 2014

See weather overviewHow to use our weather pages